{"data":{"norad_id":68518,"intl_designator":"2026-068L","name":"STARLINK-36857","alt_names":[],"object_type":"PAYLOAD","status":"ACTIVE","operator":null,"country":"US","launch_date":"2026-03-30","launch_site_code":"AFETR","launch_vehicle":null,"mission":null,"orbit_class":"UNKNOWN","rcs_meters":null,"size_class":null,"mass_kg":null,"dimensions":null,"purposes":["comms"],"wikipedia_slug":null,"has_3d_model":false,"image_url":null,"decayed_at":null,"tle_current":{"epoch":"2026-05-25T02:41:20.594688Z","epoch_age_seconds":55560,"freshness":"FRESH","line1":"1 68518U 26068L   26145.11204392  .00023105  00000+0  69283-3 0  9991","line2":"2 68518  53.1593 133.0094 0001110  83.0502 277.0627 15.34401526  8669","mean_motion":15.34401526,"eccentricity":0.000111,"inclination_deg":53.1593,"raan_deg":133.0094,"arg_perigee_deg":83.0502,"mean_anomaly_deg":277.0627,"bstar":0.00069283,"rev_number":866,"period_min":93.847664747435,"perigee_km":461.93937185406,"apogee_km":463.45803738049,"semimajor_km":6840.8357046173,"source":"CELESTRAK","updated_at":"2026-05-25T13:38:21.954526Z"}}}